sat.trackr.live / text

‹ back to catalog

STARLINK-36268

NORAD 67199 · 2025-304H

PAYLOAD ACTIVE UNKNOWN

§ Identity

Operator
Country
US
Launch date
2025-12-17
Launch site
AFWTR
Launch vehicle
Mass (kg)
RCS (m²)

Purposes: comms

External: N2YO · Heavens-Above · Gunter

§ Orbital elements

Epoch: 2026-05-25T00:09:52.683264Z

Period
96.11 min
Inclination
70.0024°
Eccentricity
0.0002189
Mean motion
14.98358452 rev/d
Perigee alt
570.4 km
Apogee alt
573.5 km
Semi-major
6,950.1 km
B*
8.3476e-4
RAAN
342.1348°
Arg perigee
264.8602°
Mean anomaly
95.2307°
Rev number
2,530

§ Raw data

STARLINK-362681 67199U 25304H   26145.00685976  .00009888  00000+0  83476-3 0  99982 67199  70.0024 342.1348 0002189 264.8602  95.2307 14.98358452 25305

JSON: /api/v1/satellites/67199 · /tle

For live sub-satellite position, see the globe view (requires WebGL).

§ Visibility from observer

Set your observer location to see the next 7 days of passes ≥ 10°. The values pass through the URL so the page stays shareable.

No JS? Fill the form by hand. The geolocation button needs JavaScript.